156  
ASUS41 KPHI 180913  
RWRPHI  
 
REGIONAL WEATHER ROUNDUP  
NATIONAL WEATHER SERVICE MOUNT HOLLY NJ  
500 AM EDT THU OCT 18 2018  
 
NOTE: "FAIR" INDICATES FEW OR NO CLOUDS BELOW 12,000 FEET WITH NO  
SIGNIFICANT WEATHER AND/OR S TO VISIBILITY
.  
 
* = STATION DOES NOT REPORT PRECIPITATION (E.G. RAIN, SNOW, ETC.)  
OR FOG.
 
 
NJZ015>026-181000-  
SOUTHERN NEW JERSEY  
 
CITY SKY/WX TMP DP RH WIND PRES REMARKS
 
POMONA FAIR 43 30 60 W6 30.29R  
WILDWOOD* FAIR 48 28 46 N13 30.31R  
MILLVILLE FAIR 43 30 60 NW6 30.30R  
WRIGHTSTOWN FAIR 42 28 59 W8 30.24R  
MOUNT HOLLY FAIR 43 27 53 W6 30.27R  
TRENTON FAIR 42 28 57 W7 30.25R  
 

 
NJZ001>014-181000-  
NORTHERN NEW JERSEY  
 
CITY SKY/WX TMP DP RH WIND PRES REMARKS
 
SUSSEX FAIR 39 28 64 VRB3 30.21R  
ANDOVER* N/A 39 26 59 VRB6 30.23R WCI 35  
MORRISTOWN FAIR 41 28 60 W7G17 30.22R  
NEWARK MOCLDY 42 26 53 NW9 30.24R  
TETERBORO FAIR 42 28 57 NW10 30.22R  
CALDWELL MOCLDY 41 27 57 NW9 30.24R  
SOMERVILLE FAIR 41 27 57 VRB6 30.22R  
ALLAIRE* FAIR 41 27 57 W10 30.25R  
TOMS RIVER* FAIR 40 31 70 W5 30.27R  
 

 
PAZ043-044-047-054-055-060>062-066>071-181000-  
EASTERN PENNSYLVANIA  
 
CITY SKY/WX TMP DP RH WIND PRES REMARKS
 
PHILADELPHIA FAIR 44 26 49 VRB5 30.30R  
NORTH PHILA FAIR 42 28 57 W7 30.29R  
BLUE BELL* FAIR 36 30 80 CALM 30.30R  
DOYLESTOWN FAIR 39 27 62 VRB5 30.25R  
QUAKERTOWN* CLEAR 39 27 60 CALM 30.26R  
PERKASIE* FAIR 37 28 70 W5 30.27R WCI 34  
POTTSTOWN FAIR 37 27 67 NW3 30.30R  
LANCASTER FAIR 41 29 62 SW5 30.30R  
COATESVILLE FAIR 39 28 65 W5 30.29R  
READING FAIR 40 30 67 W7 30.28R  
ALLENTOWN FAIR 41 28 60 W7 30.26R  
MOUNT POCONO FAIR 33 25 72 NW23G37 30.16R WCI 21  
HAZLETON CLOUDY 36 28 75 NW8 30.26R WCI 29  
LEHIGHTON FAIR 41 28 60 NW3 30.27R  
WILKES BARRE CLOUDY 39 26 59 NW10G23 30.26R WCI 32  
 

 
DEZALL-MDZ008-012-015-019-020-181000-  
DELAWARE AND EASTERN MARYLAND  
 
CITY SKY/WX TMP DP RH WIND PRES REMARKS
 
WILMINGTON FAIR 42 30 62 W6 30.31R  
DOVER FAIR 46 31 57 NW9 30.31R  
GEORGETOWN FAIR 49 33 54 N6 30.31R  
EASTON FAIR 49 33 54 NE6 30.36R  
PATUXENT FAIR 54 33 45 N16G22 30.33  
OCEAN CITY FAIR 46 36 68 N7 30.31R  
WALLOPS ISLAND FAIR 50 37 61 N12 30.30R  
CAMBRIDGE CLEAR 52 28 40 NW15G28 30.31R  
SALISBURY FAIR 47 37 68 N6 30.31R  
 

 
PAZ001-021-NYZ056-072-MDZ011-DCZ001-181000-  
OTHER NEARBY LOCATIONS  
 
CITY SKY/WX TMP DP RH WIND PRES REMARKS
 
HARRISBURG FAIR 45 30 55 NW14 30.30R  
STATE COLLEGE CLOUDY 40 28 62 NW9 30.30R WCI 35  
WILLIAMSPORT CLOUDY 40 31 70 W9 30.30R WCI 34  
BINGHAMTON CLOUDY 31 26 82 NW8 30.22R WCI 23  
NEW YORK CITY MOCLDY 44 26 49 MISG 30.24R  
BALTIMORE MOCLDY 47 33 58 NW5 30.33R  
WASHINGTON DC MOCLDY 51 31 46 NW13G18 30.35R  
 

 
 
 
CLICK HERE TO GO TO PREVIOUS BULLETINS.

The Nexlab PA Page
The Nexlab NJ Page
The Nexlab DE Page
The Nexlab MD Page Main Text Page